Regional Weather Roundup
Issued by NWS

Home | Current Version | Previous Version | Graphics & Text | Print | Product List | Glossary On
Versions: 1 2 3 4 5 6 7 8 9 10 11 12 13 14 15 16 17 18 19 20 21 22 23 24 25 26 27 28 29 30 31 32 33 34 35 36 37 38 39 40 41 42 43 44 45 46 47 48 49 50
000
ASUS43 KOAX 280302
RWRNE

WEATHER ROUNDUP FOR NEBRASKA
NATIONAL WEATHER SERVICE OMAHA NE
900 PM CST TUE JAN 27 2015

NOTES: SATELLITE DATA IS BEING USED TO AUGMENT CLOUD COVER ABOVE
       12000 FEET.
       "FAIR" INDICATES FEW OR NO CLOUDS BELOW 12,000 FEET WITH NO
       SIGNIFICANT WEATHER AND/OR OBSTRUCTIONS TO VISIBILITY.

  * THESE STATIONS DO NOT REPORT WEATHER SUCH AS RAIN...SNOW OR FOG.

NEZ001>004-019>022-054>056-280400-
NEBRASKA PANHANDLE

CITY           SKY/WX    TMP DP  RH WIND       PRES   REMARKS
SCOTTSBLUFF      N/A    N/A N/A N/A MISG      29.96F
ALLIANCE       PTCLDY    37  28  70 CALM      29.94F
CHADRON        MOCLDY    40  32  73 SW8       29.89F WCI  34
SIDNEY         PTCLDY    40  29  64 NW10      29.97F WCI  33
$$

NEZ057>060-069>072-079>082-280400-
SOUTHWEST NEBRASKA

CITY           SKY/WX    TMP DP  RH WIND       PRES   REMARKS
NORTH PLATTE   PTCLDY    36  26  67 CALM      29.91F
IMPERIAL       CLOUDY    44  26  49 N3        29.93F
MCCOOK         PTCLDY    52  30  43 W7        29.91F
$$

NEZ005>010-023>029-035>040-094-280400-
NORTH CENTRAL NEBRASKA

CITY           SKY/WX    TMP DP  RH WIND       PRES   REMARKS
VALENTINE      PTCLDY    38  30  73 SW6       29.87S WCI  33
BROKEN BOW     CLEAR     37  29  72 CALM      29.90F
ORD            CLEAR     39  30  70 CALM      29.90F
$$

NEZ041-046>049-061>064-073>077-083>087-280400-
SOUTH CENTRAL NEBRASKA

CITY           SKY/WX    TMP DP  RH WIND       PRES   REMARKS
GRAND ISLAND   CLEAR     44  32  62 SE10      29.95S
AURORA         CLEAR     40  31  71 SE10      29.95F WCI  33
HASTINGS       PTCLDY    48  31  51 SE12      29.93S
KEARNEY *      CLEAR     43  28  56 SE6       29.93S
$$

NEZ011>018-030>034-042>045-280400-
NORTHEAST NEBRASKA

CITY           SKY/WX    TMP DP  RH WIND       PRES   REMARKS
NORFOLK        CLEAR     41  31  67 SE12      29.96F
ALBION         CLEAR     41  31  69 SE10      29.95F
BLAIR          CLEAR     42  31  63 SE10      30.02R
COLUMBUS *     CLEAR     41  28  60 SE8       30.00S
TEKAMAH        CLEAR     34  29  82 S6        30.03S WCI  29
$$

NEZ050>053-065>068-078-088>093-280400-
SOUTHEAST NEBRASKA

CITY           SKY/WX    TMP DP  RH WIND       PRES   REMARKS
LINCOLN        CLEAR     44  31  60 SE9       30.02S
OMAHA EPPLEY   CLEAR     42  30  62 SE14      30.04F
FALLS CITY     CLEAR     40  29  64 SE10      30.04F WCI  33
$$

NEZ044-045-051>053-067-280400-
OMAHA AREA

CITY           SKY/WX    TMP DP  RH WIND       PRES   REMARKS
OMAHA EPPLEY   CLEAR     42  30  62 SE14      30.04F
BLAIR          CLEAR     42  31  63 SE10      30.02R
OFFUTT AFB     CLEAR     40  30  66 E12       30.04S WCI  33
$$


USA.gov is the U.S. government's official web portal to all federal, state and local government web resources and services.